Location: Fenile
(46.0500°N, 9.5500°E)
Time: 14:54:36
(UTC+00:00)

Meteor 1-18 Rocket - Pass Details

Date: 03 March 2021
Orbit: 836 x 909 km, 81.2° (Epoch: 15 April)

Event Time Altitude Azimuth Distance (km) Brightness Sun altitude
Rises 17:47:48 0° 351° (N) 3,550 7.5 -7.2°
Reaches altitude 10° 17:50:20 10° 355° (N) 2,606 6.8 -7.6°
Maximum altitude 17:56:14 61° 76° (ENE) 1,028 4.4 -8.6°
Drops below altitude 10° 18:02:02 10° 156° (SSE) 2,572 6.5 -9.6°
Sets 18:04:31 0° 160° (SSE) 3,501 7.2 -10.0°
